Regional Weather Roundup
Issued by NWS

Home | Current Version | Previous Version | Graphics & Text | Print | Product List | Glossary Off
Versions: 1 2 3 4 5 6 7 8 9 10 11 12 13 14 15 16 17 18 19 20 21 22 23 24 25 26 27 28 29 30 31 32 33 34 35 36 37 38 39 40 41 42 43 44 45 46 47 48 49 50

000
ASUS43 KLSX 272007
RWRMO

WEATHER SUMMARY FOR MISSOURI
NATIONAL WEATHER SERVICE SPRINGFIELD MO
300 PM CDT FRI MAR 27 2015

NOTE: "FAIR" INDICATES FEW OR NO CLOUDS BELOW 12,000 FEET WITH NO
       SIGNIFICANT WEATHER AND/OR OBSTRUCTIONS TO VISIBILITY.
       CURRENT SKY AND/OR WEATHER CONDITIONS ARE NOT AVAILABLE FOR
       CHILLICOTHE AND FARMINGTON.

MOZ001>031-035>038-043-044-053-054-272100-
...NORTHERN AND WESTERN MISSOURI...

CITY           SKY/WX    TMP DP  RH WIND       PRES   REMARKS
KANSAS CTY INT CLOUDY    42  19  39 N7        30.19F
KANSAS C DTWN  SUNNY     45  17  32 VRB5      30.19F
LEE`S SUMMIT   SUNNY     44  18  35 VRB6      30.19F
ST JOSEPH      SUNNY     42  18  37 NE5       30.20F
CHILLICOTHE      N/A     43  19  38 N5        30.20F
KIRKSVILLE     SUNNY     42  16  34 NW9       30.18F

$$
MOZ066>068-077>081-088>096-101>105-272100-
...SOUTHWEST MISSOURI...

CITY           SKY/WX    TMP DP  RH WIND       PRES   REMARKS
SPRINGFIELD    SUNNY     47  23  38 N15       30.15F
JOPLIN         MOSUNNY   47  25  42 N13G21    30.19F

$$
MOZ032>034-039>042-045>050-055>058-069>072-272100-
...CENTRAL MISSOURI...

CITY           SKY/WX    TMP DP  RH WIND       PRES   REMARKS
COLUMBIA       PTSUNNY   41  21  44 NW6       30.17F
JEFFERSON CITY MOSUNNY   42  18  37 VRB6      30.18F
ROLLA          PTSUNNY   40  22  48 NW9G20    30.13F
SEDALIA        SUNNY     43  20  39 VRB5      30.19F
WHITEMAN AFB   MOSUNNY   43  19  39 NW9G21    30.18F
WARRENSBURG    MOSUNNY   43  19  39 NW6       30.20F
OSAGE BEACH    PTSUNNY   43  19  39 NW7       30.17F

$$
MOZ051-052-059>065-272100-
...EAST CENTRAL MISSOURI...

CITY           SKY/WX    TMP DP  RH WIND       PRES   REMARKS
ST LOUIS INTL  PTSUNNY   40  19  43 N14       30.17F
SPIRIT OF STL  CLOUDY    40  19  43 NW10      30.17F
ST CHARLES     CLOUDY    40  20  44 NW14G20   30.17F

$$
MOZ072>076-082>087-097>100-106>115-272100-
...SOUTH CENTRAL AND SOUTHEAST MISSOURI...

CITY           SKY/WX    TMP DP  RH WIND       PRES   REMARKS
CAPE GIRARDEAU CLOUDY    40  27  59 N17       30.14S
FARMINGTON     CLOUDY    39  23  52 NW10      30.17S
POPLAR BLUFF   CLOUDY    44  28  53 N15       30.12F
WEST PLAINS    PTSUNNY   44  23  43 W10G22    30.13F

$$


USA.gov is the U.S. government's official web portal to all federal, state and local government web resources and services.